Tracking 19832 objects as of 25-Aug-2019
HD Live streaming from Space Station
objects crossing your sky now

FENGYUN 1C DEB

Track FENGYUN 1C DEB now!
10-day predictions


NORAD ID: 30565
Int'l Code: 1999-025ALF
Perigee: 797.3 km
Apogee: 1,034.9 km
Inclination: 98.4 °
Period: 103.2 minutes
Semi major axis: 7287 km
RCS: 0.0268 m2 (small)
Launch date: May 10, 1999
Source: People's Republic of China (PRC)
Launch site: Taiyaun Space Center, China (TSC)

Note: This is SATELLITE DEBRIS
aabbcc
Your satellite tracking list
Your tracking list is empty




NASA's NSSDC Master Catalog

Two Line Element Set (TLE):
1 30565U 99025ALF 19237.46851372  .00000541  00000-0  38205-3 0  9993
2 30565  98.4371 242.9059 0163076 338.7970 178.2270 13.95631914637368
Source of the keplerian elements: AFSPC